Tracking 35275 objects as of 8-Sep-2026
HD Live streaming from Space Station
objects crossing your sky now

STARLINK-32683

Track STARLINK-32683 now!
10-day predictions
STARLINK-32683 is classified as:


NORAD ID: 62445
Int'l Code: 2024-251P
Launch date: December 29, 2024
Source: United States (US)
Launch site: AIR FORCE WESTERN TEST RANGE (AFWTR)
Your satellite tracking list
Your tracking list is empty




NASA's NSSDC Master Catalog

Two Line Element Set (TLE):
1 62445U 24251P   26250.84295546  .00031283  00000-0  93210-3 0  9998
2 62445  53.1570 206.6145 0000713 213.8732 146.2226 15.34434737 95878
Source of the keplerian elements: AFSPC